GEFSGL_500_meanwind_090.txt.gz
Wind_Speed
28 28 28 28 27 26 26 27 27 27 27 28 29 29 30 31 32 33 34 35 36 37 38 39 41 42 43 44 45 46 47 48 49 49 50 50 50 51 51 51 52 52 52
29 29 29 29 28 28 28 28 28 28 28 29 30 31 31 32 33 34 35 36 37 38 39 40 41 42 42 43 44 44 45 45 46 46 47 47 46 46 46 45 45 46 47
27 27 27 28 28 28 28 28 27 28 28 29 30 32 32 33 34 34 35 36 37 38 38 39 40 40 41 42 42 42 42 42 42 42 42 42 41 41 41 42 42 42 42
26 26 27 27 28 27 27 27 27 28 29 29 30 31 32 32 34 34 35 35 35 36 37 38 38 39 39 39 39 39 38 38 38 37 37 37 37 38 37 37 37 36 36
24 25 25 25 25 25 26 27 27 27 28 29 30 31 31 32 32 33 33 33 34 35 36 36 37 36 36 35 35 34 34 33 33 33 34 34 34 34 33 32 31 31 31
23 23 23 24 24 24 25 25 26 27 28 28 29 29 29 30 30 31 32 32 33 33 33 33 32 32 30 30 29 29 29 29 29 30 29 29 30 30 29 28 28 28 28
22 22 22 22 23 23 23 24 24 25 26 26 26 26 27 28 29 29 30 30 30 30 29 28 26 26 26 26 26 26 26 26 26 26 26 26 26 26 25 25 24 24 24
21 21 21 21 22 23 23 23 22 23 23 24 25 25 25 26 26 26 26 26 25 24 24 24 24 23 23 23 23 23 23 23 23 23 23 23 22 22 22 22 21 20 20
18 19 19 20 20 20 20 20 20 21 21 22 22 23 23 24 23 23 23 23 23 23 23 22 21 21 21 21 21 20 20 20 20 20 20 20 20 19 19 18 17 17 17
17 18 18 18 18 18 18 19 19 19 20 20 20 21 21 21 21 21 21 20 20 20 20 19 19 19 19 19 18 18 19 18 18 18 18 17 17 16 16 16 15 14 14
16 16 16 16 17 17 17 17 17 18 18 18 18 19 19 19 19 19 18 18 18 17 17 17 18 18 17 17 17 17 17 17 16 16 16 16 15 15 15 14 14 13 13
13 14 14 14 14 15 15 15 15 16 16 16 16 16 17 17 17 17 16 16 16 16 16 16 16 16 16 16 16 16 16 15 15 14 14 14 14 14 13 13 12 12 12
11 12 12 12 12 12 13 13 13 13 14 14 14 15 14 14 14 14 14 14 14 14 14 14 14 15 15 15 15 15 15 14 13 13 13 13 12 12 12 12 11 12 12
9 9 10 10 10 11 11 11 11 11 11 11 11 11 11 11 11 11 11 12 12 13 13 13 13 14 14 14 14 13 13 13 12 12 12 11 11 11 11 10 10 11 11
6 7 7 7 8 8 8 8 8 8 8 8 8 8 8 8 9 9 10 10 11 11 11 11 12 12 12 12 12 12 11 11 11 10 10 10 10 9 9 9 9 9 10
3 3 4 5 5 5 5 5 5 6 6 6 6 6 7 7 8 8 9 9 10 10 10 10 10 10 10 10 10 10 9 9 9 9 8 8 8 7 7 8 8 9 9
2 3 3 3 3 3 3 3 3 3 4 4 4 5 6 6 7 8 8 9 9 9 9 9 9 9 9 9 9 9 8 8 8 8 7 7 7 7 7 7 7 8 7
3 4 3 3 2 2 2 2 2 2 3 3 4 5 5 6 7 8 8 8 9 9 9 9 9 9 9 8 8 8 7 7 7 7 6 6 6 6 6 6 7 7 6
4 4 4 4 4 3 3 3 3 3 3 4 4 5 5 6 7 8 8 8 9 9 8 8 8 8 8 7 7 7 7 6 6 6 6 5 5 6 6 6 6 6 6
7 6 6 5 6 6 6 5 5 5 5 5 5 6 7 7 8 8 9 9 9 9 8 8 8 8 7 7 7 6 6 6 5 5 5 5 5 5 6 6 6 6 6
9 8 8 8 8 8 8 8 7 7 7 7 8 8 8 9 9 10 10 10 10 10 9 9 8 8 8 7 7 7 6 6 6 6 6 6 6 6 6 6 6 6 7
11 10 10 10 10 9 9 9 9 9 9 9 9 9 10 10 11 11 12 12 12 12 11 11 10 10 9 9 8 8 7 7 7 7 7 7 7 7 7 7 7 7 7
13 12 12 12 11 11 11 11 11 11 11 11 11 11 12 12 13 13 14 14 14 14 13 13 12 11 11 10 10 9 9 9 8 8 8 8 8 8 8 8 8 8 8
14 13 13 13 13 13 13 12 12 12 12 12 12 12 13 13 14 14 15 15 15 15 14 14 14 13 12 12 11 11 11 10 10 9 9 9 9 9 9 8 8 8 8
14 14 14 14 14 14 13 13 13 13 13 13 13 13 13 14 14 14 15 15 15 15 15 15 15 14 14 13 13 12 12 11 11 10 10 10 9 9 9 8 8 8 8
15 15 14 14 14 14 14 14 13 13 13 13 13 13 13 14 14 14 14 15 15 15 15 15 15 14 14 14 13 13 12 12 11 11 10 9 9 9 9 8 8 7 7

GEFSGL_500_meanwind_096.txt.gz
Wind_Speed
30 30 31 31 31 30 31 30 29 29 28 29 29 29 29 30 30 30 31 31 32 32 33 33 35 36 37 38 39 40 42 43 44 45 45 46 47 47 47 47 47 46 46
28 29 30 30 30 30 30 30 29 29 29 29 29 30 30 30 30 30 32 33 33 34 34 35 36 37 37 38 39 40 41 42 43 44 44 44 44 44 44 43 43 43 43
27 27 28 29 29 30 30 30 29 29 28 29 29 29 29 30 30 31 32 32 33 34 35 35 36 36 37 38 39 40 40 41 42 42 41 40 40 40 40 39 39 39 38
26 26 27 27 27 27 26 27 27 27 29 29 29 29 29 29 30 30 31 32 32 33 33 34 34 35 36 37 37 38 38 38 38 37 36 36 36 35 35 34 34 34 33
23 23 24 25 24 24 25 26 26 26 26 27 27 27 27 28 29 29 30 31 32 32 32 32 33 34 34 34 34 34 33 33 32 32 31 31 31 30 30 31 30 30 29
21 22 22 22 23 23 23 23 23 24 24 25 25 25 26 27 28 29 29 30 30 30 31 31 31 31 31 30 30 30 29 29 28 28 28 27 27 27 28 28 27 26 26
19 19 20 20 21 21 21 21 21 21 22 23 24 25 25 26 27 27 28 28 28 28 29 28 28 28 28 28 28 27 27 26 26 25 25 25 25 25 25 25 24 23 23
17 18 18 18 18 18 18 18 19 19 20 20 21 22 23 24 25 25 25 26 26 26 26 26 26 26 26 26 26 25 24 24 23 23 23 22 22 22 22 21 21 20 20
16 17 17 17 17 16 16 16 17 17 18 18 19 20 21 21 22 22 23 24 24 24 24 23 23 23 23 23 23 22 22 21 21 21 20 20 19 19 19 19 19 18 18
14 15 15 15 15 15 15 15 16 16 17 17 18 18 19 19 20 21 21 21 21 21 20 21 21 21 21 21 21 20 20 19 19 18 17 18 18 18 18 18 17 16 16
13 13 12 13 13 14 14 14 15 15 16 16 17 17 17 18 18 18 18 18 18 18 18 19 19 19 19 19 19 18 18 17 17 16 16 16 16 16 17 16 15 15 15
12 12 12 12 13 13 13 13 13 14 14 14 14 15 15 16 16 16 16 16 16 16 16 17 17 17 18 17 17 16 16 16 15 15 15 14 14 15 14 14 13 13 13
10 10 10 11 11 11 11 11 12 12 12 12 12 12 13 13 13 13 13 14 14 15 15 15 16 16 16 16 15 15 14 14 13 13 14 13 13 13 13 12 11 11 12
7 8 8 8 9 9 9 9 9 9 10 10 10 10 10 11 11 11 12 13 13 14 14 15 15 14 14 14 14 13 13 13 12 13 13 12 12 11 10 10 9 10 9
5 6 6 7 7 7 7 7 7 8 8 8 8 9 9 9 10 10 11 12 13 13 13 13 13 13 13 13 12 12 12 11 11 11 11 11 10 9 8 8 8 8 7
4 4 5 5 5 5 5 6 6 6 7 7 8 8 8 9 9 10 11 11 11 11 12 12 11 11 11 11 11 10 10 10 9 9 9 8 7 6 6 6 6 6 6
4 5 5 5 5 6 5 5 5 6 6 7 7 7 8 8 9 10 10 11 11 11 11 11 10 10 10 9 9 9 8 8 7 7 7 6 5 5 4 4 4 4 4
6 6 6 6 6 6 6 6 6 6 7 7 7 8 8 9 10 10 11 11 11 11 10 10 9 9 9 8 8 7 7 6 6 5 5 5 4 4 4 4 4 4 4
7 7 7 7 7 7 7 7 8 8 8 8 9 9 10 10 11 11 11 11 11 10 10 9 9 9 8 7 7 7 6 5 5 5 4 4 4 3 3 4 4 4 5
9 9 9 9 9 9 9 9 9 9 10 10 10 11 11 12 12 12 12 12 12 11 11 10 9 9 8 8 7 7 6 6 5 5 5 4 4 4 4 4 4 5 5
11 11 11 11 10 10 10 10 11 11 11 11 12 12 12 13 13 13 14 14 14 13 13 12 11 10 9 9 8 8 7 7 6 6 6 6 5 5 5 5 5 5 5
12 12 12 12 12 12 12 12 12 12 12 12 13 13 13 14 14 15 15 15 15 15 15 14 13 12 11 10 10 9 9 8 8 7 7 7 6 6 6 6 6 6 6
14 14 14 14 13 13 13 13 13 13 13 13 14 14 14 15 15 15 16 16 16 16 16 15 15 14 13 12 11 11 10 10 9 8 8 7 7 7 7 6 6 6 6
15 15 15 14 14 14 14 13 13 13 13 13 13 14 14 14 15 15 16 16 17 17 16 16 16 15 15 14 13 12 11 10 10 9 8 8 8 8 7 7 7 7 6
16 15 15 14 14 14 14 14 13 13 13 13 13 13 13 14 14 15 15 15 16 16 16 16 16 15 15 14 13 12 12 11 11 10 10 9 9 8 8 7 7 7 7
16 15 15 14 14 14 14 13 13 13 13 13 13 13 13 13 13 14 14 14 15 15 15 15 15 15 14 14 13 12 12 12 11 11 10 10 9 9 8 8 8 8 8

GEFSGL_500_meanwind_102.txt.gz
Wind_Speed
22 23 24 25 26 27 28 27 27 27 27 28 27 26 26 25 26 26 27 27 27 28 28 29 30 30 31 32 32 34 35 36 36 37 38 40 41 42 42 42 43 43 43
22 22 23 24 24 25 26 26 26 26 26 26 26 25 26 26 26 27 27 28 28 28 29 29 29 30 31 32 32 34 34 35 36 37 38 39 40 40 40 40 40 40 39
21 22 22 22 22 22 23 23 23 23 23 24 24 25 26 26 26 27 27 27 27 27 28 29 29 30 31 32 32 33 34 35 36 37 37 37 37 37 37 36 35 35 35
19 20 20 21 21 21 21 23 22 22 23 23 24 24 25 25 25 26 26 26 26 27 27 28 29 31 31 32 33 33 34 34 34 34 34 33 33 33 32 32 32 32 32
17 18 18 18 18 19 20 20 21 21 21 22 23 22 22 23 24 25 26 26 27 27 28 29 29 30 31 31 31 31 31 31 31 30 30 30 30 29 29 29 29 29 29
15 15 15 16 17 17 17 18 18 19 20 20 20 21 22 22 23 24 25 26 27 27 28 29 29 29 29 29 28 28 28 28 28 28 28 28 28 27 27 27 27 26 26
13 13 14 13 13 14 15 15 17 17 18 19 19 20 21 22 23 24 24 25 26 26 27 27 27 26 25 25 25 25 26 26 26 26 26 26 26 25 24 24 24 24 23
11 11 11 12 12 13 13 14 14 15 16 17 18 19 20 20 21 22 22 23 23 23 23 23 23 23 23 23 24 24 24 24 24 24 24 23 23 22 21 21 21 21 20
10 10 10 11 10 10 11 12 13 13 14 15 16 17 17 17 18 18 19 20 20 20 20 20 21 21 21 22 22 22 22 22 21 21 21 20 20 19 19 19 18 18 17
9 9 9 9 8 9 9 9 10 10 11 12 13 14 14 14 15 16 17 17 18 18 17 17 18 18 18 19 19 19 19 19 19 18 18 18 18 17 17 17 16 16 16
7 7 7 8 8 8 9 9 9 9 10 11 11 12 12 13 13 14 14 14 14 14 14 15 15 15 16 16 16 16 16 16 16 16 16 16 16 16 15 15 15 15 15
4 5 6 6 7 7 7 8 8 9 8 9 9 9 10 10 10 10 10 11 11 12 13 13 13 14 14 15 15 15 14 14 14 14 14 14 14 14 14 14 13 13 13
2 3 3 3 4 4 5 5 6 6 6 6 7 8 8 8 8 8 9 10 10 11 12 12 13 13 13 13 13 13 12 12 12 12 12 12 12 12 12 12 11 11 11
0 0 1 1 2 3 3 3 3 4 4 5 5 6 6 6 7 7 8 9 10 10 11 11 11 11 11 11 10 10 10 10 10 10 10 10 10 10 10 10 9 9 9
3 3 3 3 3 3 3 2 2 2 3 3 3 4 4 5 6 7 7 8 8 8 8 9 9 9 8 8 9 9 9 9 8 8 8 8 8 8 8 7 7 7 7
5 4 5 5 5 5 5 5 4 4 3 3 3 4 4 5 6 6 6 7 7 7 7 7 7 7 7 8 8 7 7 7 7 7 7 7 7 7 6 6 6 6 6
7 7 7 8 8 8 8 7 7 6 6 5 6 6 6 7 7 7 7 7 7 7 7 7 7 7 7 7 6 6 6 6 6 6 6 6 6 5 5 5 5 5 5
9 9 9 9 9 9 9 9 9 9 9 9 9 9 9 9 9 9 9 9 8 8 8 8 7 7 6 6 6 6 5 5 5 5 5 5 4 4 4 5 5 5 5
11 11 10 10 10 10 11 11 11 11 11 11 11 11 11 11 11 11 11 11 11 10 10 9 9 8 7 7 7 6 6 6 5 5 5 5 4 4 4 5 5 5 5
12 12 12 12 11 11 12 13 13 13 13 13 13 13 13 13 13 13 13 13 13 12 12 11 11 11 10 9 8 8 8 7 7 6 6 6 5 5 5 5 5 5 6
14 14 14 14 14 13 13 14 14 14 14 13 13 13 14 14 15 15 15 15 15 14 14 14 13 13 12 11 10 10 9 9 8 7 7 6 6 6 6 6 6 6 6
15 15 15 15 15 15 14 14 14 14 14 14 14 14 15 15 15 15 16 16 16 16 16 15 15 14 13 13 12 11 10 10 9 8 8 7 7 7 7 7 7 6 6
15 15 15 15 15 15 15 15 14 14 14 14 14 14 14 14 14 14 15 15 15 15 15 15 15 15 14 14 13 12 11 11 10 9 8 8 8 7 7 7 7 7 7
15 15 15 15 15 15 15 14 14 14 14 14 14 14 14 14 14 14 14 15 15 15 15 15 14 14 14 13 13 13 12 12 11 10 9 9 8 8 8 8 8 8 8
15 15 15 15 15 15 14 14 13 13 13 13 13 13 13 13 13 13 13 14 14 14 14 14 14 14 14 13 13 13 12 12 12 11 11 10 10 9 9 9 9 9 9
15 15 15 15 14 14 14 13 13 13 13 12 12 12 12 13 13 13 13 13 13 14 14 14 14 14 14 14 13 13 13 13 12 12 12 11 11 11 11 10 11 11 11

GEFSGL_500_meanwind_108.txt.gz
Wind_Speed
23 23 23 23 23 24 24 25 25 26 27 27 26 26 25 26 26 25 25 25 26 26 26 26 27 27 28 29 30 31 32 33 33 34 35 35 36 37 38 38 39 40 40
22 22 23 23 23 24 24 24 24 24 24 25 25 25 26 26 27 27 26 26 27 27 27 28 29 29 30 30 31 32 33 33 34 35 35 36 36 36 37 37 38 38 38
22 22 22 23 23 23 23 24 23 23 23 23 24 25 25 25 25 26 26 27 27 27 28 29 29 30 30 31 32 32 33 33 34 35 36 36 36 36 36 36 36 36 36
22 22 22 22 22 22 22 23 22 22 23 23 24 24 25 25 25 25 26 27 27 27 28 29 29 30 30 31 31 32 33 33 34 34 34 34 34 34 34 34 34 34 33
21 21 20 19 19 20 20 20 21 22 22 22 22 22 23 24 24 24 24 25 25 26 27 28 29 29 30 31 31 31 31 31 31 31 31 32 32 31 31 32 31 31 31
18 19 18 17 17 18 18 18 18 19 20 21 21 22 22 23 23 24 24 24 25 26 27 28 28 29 29 29 29 29 29 29 29 29 30 30 30 29 29 29 29 29 28
15 15 15 15 16 16 16 16 17 18 18 19 20 20 20 21 22 23 23 24 25 25 26 25 26 26 26 25 26 26 27 27 27 27 27 27 27 27 27 27 26 26 25
12 13 12 13 14 14 15 15 16 16 16 17 18 18 19 20 21 22 22 22 22 22 22 23 23 23 23 24 24 25 25 25 24 24 24 24 24 24 24 24 23 23 22
11 11 11 11 11 11 12 13 14 14 14 15 15 16 17 17 19 19 19 19 19 19 19 19 20 21 21 22 22 22 22 22 21 21 21 21 22 21 21 20 20 19 19
9 9 9 9 9 10 10 11 11 12 13 13 13 13 14 14 14 14 15 15 15 16 17 17 18 18 19 19 19 19 19 19 19 19 19 19 18 18 17 17 17 16 16
7 7 7 8 8 9 9 8 9 9 10 10 10 10 10 10 11 11 11 12 13 14 15 15 16 17 17 17 17 17 17 17 17 17 16 16 15 15 14 14 14 14 14
5 5 5 6 6 6 6 6 7 7 7 7 7 7 8 8 8 8 9 10 11 12 12 13 13 14 14 14 14 14 14 14 14 14 13 13 13 13 12 12 12 12 12
2 2 2 3 2 3 4 4 4 4 4 4 4 5 5 5 6 7 8 9 9 9 10 10 11 11 11 11 11 11 11 11 11 11 10 10 11 11 11 10 10 10 10
1 1 2 2 2 2 3 2 2 2 2 2 3 3 4 5 5 6 6 7 7 8 8 8 9 9 9 9 9 9 9 8 8 8 8 9 9 9 9 8 9 9 8
4 4 4 5 5 6 6 6 5 4 4 4 4 4 4 5 5 5 6 6 7 7 7 7 8 8 8 8 7 7 7 7 7 7 8 8 8 8 7 7 7 7 7
6 6 7 8 8 9 9 8 8 7 6 6 7 7 7 7 7 7 7 7 7 7 7 7 7 7 7 7 7 7 7 6 6 6 7 7 6 6 6 6 7 7 7
8 8 9 10 10 10 10 10 10 10 10 9 9 9 9 9 9 9 9 9 9 9 9 9 8 8 8 8 7 7 7 6 6 6 6 6 6 6 6 6 6 6 6
10 10 10 11 11 11 12 12 12 12 12 12 12 12 12 12 12 12 12 11 11 11 11 11 10 10 9 9 8 8 8 7 7 7 7 7 7 7 7 7 7 7 7
11 12 12 12 12 13 13 13 13 14 14 14 14 14 14 14 14 13 13 13 13 13 13 13 13 13 12 11 11 10 10 9 9 8 8 8 8 8 8 8 8 7 7
13 13 13 13 13 14 14 14 14 14 15 15 14 14 14 14 14 14 14 14 15 15 15 15 14 14 14 13 13 12 11 11 10 10 9 9 9 8 8 8 9 8 8
14 14 14 14 14 14 14 14 15 15 15 15 15 15 15 15 15 15 15 15 15 15 15 14 14 14 14 14 13 13 13 12 11 11 10 10 9 9 9 10 10 9 9
15 15 15 15 15 15 15 15 15 15 15 15 15 15 15 15 15 15 15 15 14 14 14 14 14 14 14 14 14 14 13 13 12 12 12 11 10 10 10 11 11 10 11
16 16 16 15 15 15 15 15 15 15 15 15 15 15 15 15 15 15 15 15 15 15 15 14 14 14 14 14 14 14 14 14 13 13 13 12 12 12 12 12 12 12 12
16 15 15 15 15 15 14 14 14 14 14 14 14 14 14 14 15 15 15 15 15 15 15 15 14 14 14 14 14 14 14 14 14 14 14 14 14 14 13 13 13 13 13
15 15 15 15 15 14 14 14 14 14 14 14 14 14 14 14 14 15 15 15 15 15 15 15 15 15 15 15 15 15 15 15 15 15 15 15 15 15 15 15 15 15 15
15 15 15 15 14 14 14 14 14 14 14 13 13 14 14 14 15 15 15 15 15 16 16 15 16 16 16 16 16 16 16 16 17 17 17 16 16 16 16 16 17 17 17

GEFSGL_500_meanwind_114.txt.gz
Wind_Speed
23 23 23 23 24 24 25 26 26 26 27 28 28 28 28 29 30 29 29 28 28 28 29 29 29 30 30 30 31 32 32 33 32 32 33 33 34 34 35 36 37 37 38
22 22 23 23 23 24 24 25 25 26 26 27 27 27 28 28 28 28 27 27 28 29 29 29 29 29 30 31 32 31 31 31 31 32 33 33 33 34 34 35 36 37 37
21 22 22 22 23 23 24 24 25 25 26 25 25 25 25 25 25 25 27 27 28 29 29 29 29 29 30 30 31 30 31 31 32 32 32 33 33 33 34 35 35 35 35
21 21 21 21 22 22 22 22 23 23 23 23 23 24 24 23 24 24 25 25 27 27 27 27 27 28 29 29 29 30 31 31 31 31 31 31 32 32 33 33 33 33 32
21 20 20 20 19 19 19 19 19 20 21 21 21 21 22 22 23 23 24 24 24 25 26 26 26 27 27 28 28 28 28 28 29 30 30 30 31 31 31 31 31 31 31
18 18 18 18 18 18 18 18 18 19 19 20 21 20 21 21 22 22 23 23 24 24 25 25 25 26 25 25 25 26 26 26 27 28 28 29 29 29 30 30 30 30 30
15 15 15 16 16 16 16 16 16 17 17 17 17 18 18 19 20 21 22 21 21 22 22 21 21 22 22 23 23 24 24 24 25 26 26 27 27 27 28 28 27 26 26
13 12 13 13 13 13 13 13 13 13 13 13 13 14 15 16 16 17 17 17 17 18 18 19 20 21 21 21 21 21 21 22 22 23 23 24 24 24 24 24 23 22 23
11 10 10 9 9 9 10 10 10 10 10 10 11 11 12 12 13 13 13 14 15 15 16 17 17 18 18 18 19 19 19 20 21 21 21 21 20 20 20 20 20 20 20
8 8 6 6 7 7 7 7 7 8 8 9 9 9 10 11 10 10 10 11 11 12 13 14 14 15 15 15 15 16 17 17 17 17 17 17 17 17 17 17 17 18 17
4 3 3 3 3 4 4 4 5 6 7 6 7 7 7 7 7 7 7 8 8 9 10 10 11 11 12 12 12 13 13 13 13 13 14 14 14 14 14 14 15 15 15
1 1 1 1 2 2 2 2 3 3 3 3 3 3 3 3 3 4 4 5 5 6 6 7 7 8 8 8 9 9 9 9 9 9 9 10 10 11 11 11 12 12 12
2 2 2 1 1 1 1 1 1 1 1 1 1 1 1 1 1 2 2 3 3 3 4 4 4 4 5 5 5 6 6 6 6 7 8 8 9 9 10 10 11 11 11
4 4 4 4 3 3 4 4 4 4 4 4 4 4 4 4 4 4 4 4 4 4 4 4 4 4 4 4 4 4 4 5 6 6 7 7 8 8 9 9 10 10 11
5 6 6 6 7 7 7 7 7 7 6 6 6 6 6 7 7 7 7 7 6 6 6 6 5 5 5 5 5 5 5 5 5 5 6 7 7 8 9 9 9 10 10
7 8 8 9 9 9 9 9 9 9 9 9 9 9 9 9 9 9 9 9 9 9 8 8 8 7 7 7 6 6 5 5 5 6 6 7 8 8 8 9 9 9 9
9 10 10 11 11 11 11 11 11 11 11 11 11 11 11 11 11 11 11 11 11 10 10 10 10 9 9 8 8 7 7 7 6 7 7 7 8 8 8 8 8 8 8
12 12 12 12 13 13 13 13 13 13 13 13 13 12 12 12 13 13 13 12 12 12 12 12 11 11 10 10 9 9 9 8 8 8 8 8 8 9 9 9 9 9 9
14 14 14 14 14 14 14 14 14 14 14 14 14 14 13 13 13 12 12 12 12 12 12 12 12 12 11 11 10 10 10 9 9 9 9 9 9 9 9 9 9 10 10
15 15 15 15 14 14 14 14 14 14 14 14 14 13 13 13 13 13 13 12 12 12 12 12 12 12 12 12 11 11 11 11 11 11 11 10 10 10 10 10 10 10 11
15 15 15 15 15 15 15 14 14 14 14 14 14 14 14 13 13 13 13 13 13 12 12 12 12 13 13 12 12 12 12 12 12 12 12 12 12 12 11 11 11 12 12
15 15 15 15 15 15 14 14 14 14 14 14 14 14 14 13 13 13 13 13 13 13 13 13 13 13 13 13 13 13 13 12 12 13 13 13 13 13 13 13 13 13 13
14 14 14 14 14 14 13 13 13 13 13 14 14 14 14 14 14 14 14 13 13 13 13 13 13 14 14 14 14 14 14 14 14 14 14 14 14 14 14 14 14 15 15
13 13 13 13 13 13 13 13 13 14 14 14 14 14 15 15 15 15 15 15 14 14 14 14 14 14 15 15 15 15 15 15 15 15 15 15 15 15 16 16 16 16 16
13 13 13 13 13 13 13 13 13 13 13 13 13 13 14 14 14 14 14 15 14 14 14 14 14 15 15 15 16 16 16 16 16 16 17 17 17 17 17 18 18 18 18
13 13 13 13 12 12 12 12 12 12 12 12 12 12 12 12 12 13 13 13 14 14 14 15 15 15 15 16 16 16 17 17 17 18 18 18 18 18 18 19 19 20 20

GEFSGL_500_meanwind_120.txt.gz
Wind_Speed
25 26 26 26 26 27 27 27 27 27 28 28 28 28 28 28 27 28 29 30 30 30 30 30 30 30 29 29 29 29 29 29 29 29 30 31 32 32 33 33 33 33 35
24 24 25 25 25 25 26 26 26 26 26 26 27 27 26 26 27 26 26 27 27 27 28 28 28 28 28 28 28 27 27 27 28 28 29 29 29 30 31 31 31 31 31
24 24 24 24 24 24 24 24 24 24 24 25 25 25 25 25 25 25 25 25 25 25 25 25 25 25 26 26 26 26 26 26 27 27 27 27 27 28 29 29 29 29 29
24 24 24 23 23 23 23 23 23 23 23 22 23 23 23 24 24 24 24 23 24 24 24 24 24 25 25 24 24 25 25 25 25 25 25 25 25 26 26 26 26 27 27
23 23 23 22 22 22 21 21 21 21 21 21 21 21 21 21 21 22 21 21 22 22 22 22 22 22 23 23 23 22 22 23 23 23 23 23 23 24 24 25 26 26 26
22 21 20 20 19 19 18 18 18 18 18 19 19 19 19 19 20 20 20 20 21 21 20 20 20 21 21 22 21 21 22 22 22 22 21 21 22 22 23 24 24 24 24
18 17 17 17 16 16 16 16 16 16 17 17 17 17 17 17 17 17 18 19 19 19 19 19 19 20 20 21 20 20 20 20 20 20 20 20 21 21 21 20 20 20 20
14 14 13 13 12 12 12 13 14 14 14 14 14 15 15 15 15 15 15 15 15 15 15 16 16 16 17 17 16 16 16 17 17 18 18 18 18 18 17 17 18 18 18
11 11 10 10 10 10 9 10 10 10 11 11 11 12 12 11 11 11 10 10 11 11 12 12 12 13 13 13 13 14 14 14 14 15 15 15 15 15 15 16 16 16 16
8 7 6 7 7 6 6 7 7 7 8 8 8 8 8 7 7 8 7 7 8 8 8 8 8 9 9 9 10 10 10 10 11 12 12 12 12 12 13 13 13 14 14
5 4 3 4 5 4 4 5 5 4 5 5 4 4 4 3 3 4 4 4 5 5 5 5 5 6 6 6 6 7 8 8 8 8 8 9 9 10 11 11 12 12 13
3 3 3 3 4 3 3 4 3 3 3 3 3 2 2 2 2 2 3 3 3 3 3 3 4 4 4 5 5 6 6 6 6 6 7 7 8 8 9 10 11 11 12
3 3 3 4 4 4 4 5 5 5 5 5 5 5 5 4 4 4 4 3 3 4 4 4 4 4 4 5 5 5 5 5 6 6 6 6 7 8 8 9 10 11 12
3 4 4 4 5 6 6 6 6 6 6 7 7 7 7 7 7 7 7 7 7 7 7 7 6 6 6 6 6 6 6 6 6 6 6 7 8 8 9 10 11 11 12
5 5 5 6 6 6 7 7 7 7 7 8 8 9 9 9 9 9 9 9 9 9 9 9 8 8 8 8 8 8 8 8 8 8 8 8 9 9 10 10 11 11 11
6 6 6 6 7 7 7 7 8 8 8 9 9 10 10 10 10 10 10 11 11 11 11 11 10 10 9 9 9 9 9 9 9 10 10 10 10 10 10 11 11 12 12
7 7 7 8 8 9 9 10 10 10 10 11 11 11 12 12 12 12 12 13 13 12 12 12 12 12 11 11 11 11 11 11 11 11 11 11 11 11 12 12 12 12 12
9 9 10 10 11 11 11 11 11 12 12 12 12 13 13 13 13 13 13 13 13 12 13 13 13 13 13 12 12 12 12 12 12 12 12 12 12 12 13 13 13 13 13
11 12 12 12 12 12 13 13 13 13 13 13 13 13 13 13 13 13 13 13 12 12 13 14 14 14 13 13 13 13 12 12 12 12 12 12 13 13 13 14 14 15 15
13 13 13 13 13 13 14 14 14 14 14 14 14 14 14 14 13 13 13 13 13 13 14 14 14 14 14 14 13 13 13 13 13 13 13 13 14 14 14 15 16 16 16
13 13 13 13 13 14 14 14 14 14 14 14 14 15 15 14 13 13 13 13 14 14 14 14 14 14 14 15 15 15 15 15 15 15 15 15 15 15 15 16 16 17 17
13 13 13 13 13 13 13 14 14 14 14 14 15 15 15 14 14 14 15 15 15 15 15 15 15 15 15 15 15 16 16 16 16 16 17 17 17 17 17 17 18 18 19
11 11 12 12 13 13 13 13 13 14 14 14 15 15 15 15 15 15 15 15 15 15 15 15 15 15 15 15 16 16 16 17 17 18 18 18 18 19 19 19 20 20 20
10 10 11 12 12 12 12 13 13 13 14 14 14 14 15 15 15 15 15 15 14 14 14 14 15 15 15 16 16 16 17 17 18 18 19 19 20 20 21 21 22 22 23
9 9 10 10 11 11 11 11 12 12 12 12 12 13 13 13 13 13 13 13 13 14 14 14 14 15 15 16 16 17 17 18 18 19 20 20 21 22 22 23 24 25 25
8 8 9 9 9 10 10 10 11 11 11 11 11 11 11 11 11 11 11 12 12 13 13 13 14 14 15 16 16 17 18 19 19 20 21 21 22 23 24 24 26 27 27